Winfield, KS

8:34 PM CST on December 15, 2019 (GMT -0600)
Strother

Weather History for KWLD - October, 2019

Change the Weather History Date:

Tuesday, October 15, 2019

  Actual Average Record
Temperature  
Mean Temperature 59 °F -  
Max Temperature 70 °F 69 °F 88 °F (2005)
Min Temperature 44 °F 46 °F 30 °F (2018)
Degree Days  
Heating Degree Days 6    
Growing Degree Days 9 (Base 50)    
Moisture  
Dew Point 53 °F    
Average Humidity 76    
Maximum Humidity 100    
Minimum Humidity 33    
Precipitation  
Precipitation 0.00 in - - ()
Sea Level Pressure  
Sea Level Pressure 29.95 in    
Wind  
Wind Speed 10 mph ()    
Max Wind Speed 24 mph    
Max Gust Speed 37 mph    
Visibility 7.8 miles    
Events Rain    
Averages and records for this station are not official NWS values.
T = Trace of Precipitation, MM = Missing Value Source: Averaged Metar Reports

Daily Weather History Graph

Daily Weather History Graph

Search for Another Location

Airport or City:

Astronomy

Oct. 15, 2019 Rise Set
Actual Time 7:35 AM CDT 6:51 PM CDT
Civil Twilight 7:09 AM CDT 7:17 PM CDT
Nautical Twilight 6:39 AM CDT 7:47 PM CDT
Astronomical Twilight 6:09 AM CDT 8:17 PM CDT
Moon 8:13 PM CDT (10/15) 9:06 AM CDT (10/15)
Length of Visible Light 12h 08m
Length of Day
11h 15m
Full, 97% of the Moon is Illuminated
Oct 15
Full
Oct 21
Last Quarter
Oct 27
New
Nov 4
First Quarter
Nov 12
Full

Hourly Weather History & Observations

Time (CDT) Temp. Windchill Dew Point Humidity Pressure Visibility Wind Dir Wind Speed Gust Speed Precip Events Conditions
12:54 AM 62.1 °F - 60.1 °F 93% 29.85 in 10.0 mi South 10.4 mph - N/A   Clear
1:50 AM 60.8 °F - 60.8 °F 100% 29.87 in 8.0 mi South 10.4 mph - N/A   Mostly Cloudy
1:54 AM 62.1 °F - 60.1 °F 93% 29.85 in 8.0 mi South 9.2 mph - N/A   Mostly Cloudy
2:54 AM 63.0 °F - 62.1 °F 97% 29.85 in 7.0 mi South 9.2 mph - N/A   Overcast
3:54 AM 63.0 °F - 62.1 °F 97% 29.83 in 6.0 mi South 10.4 mph - N/A   Overcast
4:54 AM 64.0 °F - 63.0 °F 96% 29.83 in 6.0 mi South 9.2 mph - N/A   Overcast
5:54 AM 64.0 °F - 63.0 °F 96% 29.83 in 7.0 mi South 9.2 mph - N/A   Overcast
6:54 AM 64.9 °F - 64.0 °F 97% 29.84 in 6.0 mi South 9.2 mph - N/A   Overcast
7:54 AM 66.0 °F - 64.9 °F 96% 29.84 in 5.0 mi South 5.8 mph - N/A   Overcast
8:45 AM 66.9 °F - 64.9 °F 93% 29.91 in 5.0 mi WNW 5.8 mph - N/A   Overcast
8:52 AM 66.2 °F - 64.4 °F 94% 29.91 in 5.0 mi NW 6.9 mph - N/A   Overcast
8:54 AM 66.9 °F - 64.9 °F 93% 29.89 in 5.0 mi NW 4.6 mph - N/A   Overcast
9:13 AM 68.0 °F - 64.9 °F 90% 29.92 in 5.0 mi WNW 4.6 mph - N/A   Mostly Cloudy
9:29 AM 68.0 °F - 64.9 °F 90% 29.92 in 6.0 mi WNW 5.8 mph - N/A   Partly Cloudy
9:54 AM 70.0 °F - 64.9 °F 84% 29.91 in 7.0 mi WNW 10.4 mph - N/A   Partly Cloudy
10:07 AM 68.0 °F - 64.0 °F 87% 29.93 in 8.0 mi NW 10.4 mph - N/A   Mostly Cloudy
10:39 AM 66.0 °F - 63.0 °F 90% 29.94 in 6.0 mi NNW 17.3 mph 23.0 mph N/A   Overcast
10:49 AM 62.6 °F - 60.8 °F 94% 29.95 in 5.0 mi North 19.6 mph 32.2 mph 0.00 in Rain Light Rain
10:54 AM 62.1 °F - 60.1 °F 93% 29.94 in 5.0 mi North 18.4 mph 32.2 mph 0.00 in Rain Light Rain
11:25 AM 59.0 °F - 55.9 °F 90% 29.96 in 8.0 mi NNE 16.1 mph 28.8 mph 0.00 in   Overcast
11:54 AM 59.0 °F - 52.0 °F 78% 29.96 in 10.0 mi North 19.6 mph 26.5 mph 0.00 in   Overcast
12:54 PM 69.1 °F - 44.1 °F 40% 29.95 in 10.0 mi North 24.2 mph 36.8 mph N/A   Partly Cloudy
1:54 PM 69.1 °F - 43.0 °F 39% 29.97 in 10.0 mi NNE 21.9 mph 34.5 mph N/A   Clear
2:54 PM 68.0 °F - 42.1 °F 39% 29.99 in 10.0 mi NNE 19.6 mph 29.9 mph N/A   Clear
3:54 PM 69.1 °F - 41.0 °F 36% 30.00 in 10.0 mi North 23.0 mph 33.4 mph N/A   Clear
4:54 PM 66.9 °F - 37.9 °F 34% 30.02 in 10.0 mi North 18.4 mph 32.2 mph N/A   Clear
5:54 PM 64.9 °F - 35.1 °F 33% 30.04 in 10.0 mi NNE 16.1 mph 24.2 mph N/A   Clear
6:54 PM 59.0 °F - 37.0 °F 44% 30.06 in 10.0 mi North 9.2 mph - N/A   Clear
7:54 PM 52.0 °F - 37.0 °F 57% 30.09 in 10.0 mi North 6.9 mph - N/A   Clear
8:54 PM 48.9 °F - 37.0 °F 64% 30.12 in 10.0 mi North 6.9 mph - N/A   Clear
9:54 PM 50.0 °F - 36.0 °F 59% 30.15 in 10.0 mi North 10.4 mph - N/A   Clear
10:54 PM 48.9 °F - 35.1 °F 59% 30.18 in 10.0 mi North 10.4 mph - N/A   Clear
11:54 PM 44.1 °F 40.8 °F 34.0 °F 68% 30.21 in 10.0 mi North 5.8 mph - N/A   Clear